South Lake Tahoe, CA

9:30 AM PST on December 14, 2017 (GMT -0800)
Lake Tahoe

Weather History for KTVL - May, 2013

Change the Weather History Date:

Thursday, May 2, 2013

  Actual Average Record
Temperature  
Mean Temperature 49 °F 44 °F  
Max Temperature 71 °F 59 °F 74 °F (2014)
Min Temperature 26 °F 30 °F 21 °F (1968)
Degree Days  
Heating Degree Days 16 21  
Month to date heating degree days 33 42  
Since 1 July heating degree days 6417 6932  
Cooling Degree Days 0 0  
Month to date cooling degree days 0 0  
Year to date cooling degree days 0 0  
Moisture  
Dew Point 19 °F    
Average Humidity 37    
Maximum Humidity 63    
Minimum Humidity 11    
Precipitation  
Precipitation 0.00 in - 0.49 in (1964)
Month to date precipitation 0.00  
Year to date precipitation 2.94  
Sea Level Pressure  
Sea Level Pressure 30.33 in    
Wind  
Wind Speed 3 mph (SE)    
Max Wind Speed 10 mph    
Max Gust Speed 15 mph    
Visibility 10 miles    
Events      
T = Trace of Precipitation, MM = Missing Value Source: NWS Daily Summary

Daily Weather History Graph

Daily Weather History Graph

Search for Another Location

Airport or City:

Trip Planner

Search our weather history database for the weather conditions in past years. The results will help you decide how hot, cold, wet, or windy it might be!

Date:

Astronomy

May. 02, 2013 Rise Set
Actual Time 6:00 AM PDT 7:53 PM PDT
Civil Twilight 5:31 AM PDT 8:22 PM PDT
Nautical Twilight 4:56 AM PDT 8:58 PM PDT
Astronomical Twilight 4:19 AM PDT 9:35 PM PDT
Moon 1:47 AM PDT (5/2) 12:52 PM PDT (5/2)
Length of Visible Light 14h 51m
Length of Day
13h 53m
Waning Gibbous, 46% of the Moon is Illuminated
May 2
Waning Gibbous
May 9
New
May 17
First Quarter
May 24
Full
May 31
Last Quarter

Hourly Weather History & Observations

Time (PDT) Temp. Windchill Dew Point Humidity Pressure Visibility Wind Dir Wind Speed Gust Speed Precip Events Conditions
12:53 AM 35.1 °F 31.0 °F 12.9 °F 40% 30.40 in 10.0 mi South 4.6 mph - N/A   Clear
1:53 AM 33.1 °F 28.7 °F 12.9 °F 43% 30.39 in 10.0 mi South 4.6 mph - N/A   Clear
2:53 AM 30.0 °F 25.2 °F 15.1 °F 54% 30.40 in 10.0 mi South 4.6 mph - N/A   Clear
3:53 AM 28.9 °F 25.2 °F 15.1 °F 56% 30.40 in 10.0 mi South 3.5 mph - N/A   Clear
4:53 AM 28.0 °F 24.2 °F 15.1 °F 58% 30.40 in 10.0 mi South 3.5 mph - N/A   Clear
5:53 AM 27.0 °F 21.6 °F 15.1 °F 61% 30.41 in 10.0 mi South 4.6 mph - N/A   Clear
7:53 AM 37.0 °F - 16.0 °F 42% 30.42 in 10.0 mi Calm Calm - N/A   Clear
8:53 AM 48.9 °F - 10.0 °F 21% 30.38 in 10.0 mi Calm Calm - N/A   Clear
9:53 AM 54.0 °F - 10.9 °F 18% 30.35 in 10.0 mi ENE 8.1 mph - N/A   Clear
10:53 AM 57.0 °F - 15.1 °F 19% 30.36 in 10.0 mi Calm Calm - N/A   Clear
12:53 PM 62.1 °F - 15.1 °F 16% 30.33 in 10.0 mi Calm Calm - N/A   Clear
1:53 PM 64.0 °F - 15.1 °F 15% 30.32 in 10.0 mi NNE 8.1 mph - N/A   Clear
2:53 PM 66.0 °F - 17.1 °F 15% 30.31 in 10.0 mi NNE 6.9 mph - N/A   Clear
3:53 PM 70.0 °F - 12.9 °F 11% 30.27 in 10.0 mi Variable 3.5 mph - N/A   Clear
4:53 PM 70.0 °F - 17.1 °F 13% 30.26 in 10.0 mi NNE 6.9 mph - N/A   Clear
5:53 PM 68.0 °F - 19.0 °F 15% 30.26 in 10.0 mi North 3.5 mph - N/A   Clear
6:53 PM 63.0 °F - 28.0 °F 27% 30.26 in 10.0 mi Calm Calm - N/A   Clear
7:53 PM 55.9 °F - 30.9 °F 39% 30.26 in 10.0 mi Calm Calm - N/A   Clear
8:53 PM 51.1 °F - 28.0 °F 41% 30.26 in 10.0 mi Calm Calm - N/A   Clear
9:53 PM 48.0 °F - 30.9 °F 52% 30.26 in 10.0 mi Calm Calm - N/A   Clear
10:53 PM 46.0 °F 44.8 °F 33.1 °F 61% 30.25 in 10.0 mi SSW 3.5 mph - N/A   Clear
11:53 PM 44.1 °F - 32.0 °F 63% 30.25 in 10.0 mi Calm Calm - N/A   Clear